TimeAKST,TemperatureF,Dew PointF,Humidity,Sea Level PressureIn,VisibilityMPH,Wind Direction,Wind SpeedMPH,Gust SpeedMPH,PrecipitationIn,Events,Conditions,WindDirDegrees,DateUTC
12:16 AM,-9.4,-18.4,65,30.06,8.0,East,12.7,-,N/A,,Overcast,80,2013-02-16 09:16:00
12:36 AM,-9.4,-13.0,84,30.07,5.0,East,13.8,-,N/A,,Overcast,90,2013-02-16 09:36:00
12:56 AM,-9.4,-18.4,65,30.07,10.0,East,11.5,-,N/A,,Scattered Clouds,80,2013-02-16 09:56:00
1:16 AM,-9.4,-14.8,77,30.08,10.0,East,10.4,-,N/A,,Partly Cloudy,90,2013-02-16 10:16:00
1:36 AM,-9.4,-16.6,71,30.08,10.0,East,11.5,-,N/A,,Scattered Clouds,90,2013-02-16 10:36:00
1:56 AM,-9.4,-16.6,71,30.08,10.0,East,11.5,-,N/A,,Mostly Cloudy,80,2013-02-16 10:56:00
2:16 AM,-9.4,-14.8,77,30.09,10.0,East,10.4,-,N/A,,Overcast,90,2013-02-16 11:16:00
2:36 AM,-9.4,-16.6,71,30.09,10.0,East,12.7,-,N/A,,Overcast,90,2013-02-16 11:36:00
2:56 AM,-9.4,-14.8,77,30.09,9.0,East,15.0,-,N/A,,Overcast,90,2013-02-16 11:56:00
3:16 AM,-9.4,-16.6,71,30.09,7.0,East,13.8,-,N/A,,Overcast,90,2013-02-16 12:16:00
3:36 AM,-9.4,-16.6,71,30.10,6.0,East,13.8,-,N/A,,Overcast,80,2013-02-16 12:36:00
3:56 AM,-11.2,-14.8,84,30.10,6.0,ENE,12.7,-,N/A,,Overcast,70,2013-02-16 12:56:00
4:16 AM,-9.4,-18.4,65,30.10,10.0,East,13.8,-,N/A,,Overcast,80,2013-02-16 13:16:00
4:36 AM,-11.2,-14.8,84,30.10,10.0,East,13.8,-,N/A,,Scattered Clouds,80,2013-02-16 13:36:00
4:56 AM,-11.2,-20.2,64,30.10,10.0,ENE,11.5,-,N/A,,Clear,70,2013-02-16 13:56:00
5:16 AM,-11.2,-16.6,77,30.10,10.0,East,11.5,-,N/A,,Clear,80,2013-02-16 14:16:00
5:36 AM,-11.2,-16.6,77,30.10,10.0,ENE,12.7,-,N/A,,Clear,70,2013-02-16 14:36:00
5:56 AM,-11.2,-20.2,64,30.10,10.0,East,12.7,-,N/A,,Clear,80,2013-02-16 14:56:00
6:16 AM,-13.0,-18.4,77,30.11,10.0,East,9.2,-,N/A,,Clear,80,2013-02-16 15:16:00
6:36 AM,-14.8,-20.2,77,30.11,10.0,East,9.2,-,N/A,,Partly Cloudy,90,2013-02-16 15:36:00
6:56 AM,-13.0,-13.0,100,30.11,10.0,East,13.8,-,N/A,,Scattered Clouds,80,2013-02-16 15:56:00
7:16 AM,-11.2,-23.8,54,30.11,10.0,East,12.7,-,N/A,,Mostly Cloudy,80,2013-02-16 16:16:00
7:36 AM,-13.0,-20.2,70,30.11,9.0,ENE,12.7,-,N/A,,Overcast,70,2013-02-16 16:36:00
7:56 AM,-13.0,-20.2,70,30.11,10.0,ENE,13.8,-,N/A,,Mostly Cloudy,70,2013-02-16 16:56:00
8:16 AM,-14.8,-20.2,77,30.12,10.0,ENE,11.5,-,N/A,,Partly Cloudy,70,2013-02-16 17:16:00
8:36 AM,-14.8,-23.8,64,30.12,10.0,East,10.4,-,N/A,,Clear,80,2013-02-16 17:36:00
8:56 AM,-14.8,-14.8,100,30.11,10.0,ENE,11.5,-,N/A,,Clear,70,2013-02-16 17:56:00
9:16 AM,-14.8,-25.6,58,30.12,10.0,East,9.2,-,N/A,,Clear,100,2013-02-16 18:16:00
9:36 AM,-16.6,-25.6,64,30.12,10.0,East,9.2,-,N/A,,Clear,80,2013-02-16 18:36:00
9:56 AM,-16.6,-16.6,100,30.12,10.0,East,10.4,-,N/A,,Clear,90,2013-02-16 18:56:00
10:16 AM,-14.8,-23.8,64,30.12,10.0,ENE,12.7,-,N/A,,Clear,70,2013-02-16 19:16:00
10:36 AM,-14.8,-23.8,64,30.12,10.0,ENE,10.4,-,N/A,,Clear,70,2013-02-16 19:36:00
10:56 AM,-14.8,-18.4,84,30.13,10.0,ENE,13.8,-,N/A,,Clear,70,2013-02-16 19:56:00
11:16 AM,-14.8,-25.6,58,30.13,10.0,ENE,12.7,-,N/A,,Clear,70,2013-02-16 20:16:00
11:36 AM,-16.6,-27.4,58,30.14,10.0,ESE,5.8,-,N/A,,Clear,110,2013-02-16 20:36:00
11:56 AM,-16.6,-16.6,100,30.14,10.0,SSE,9.2,-,N/A,,Clear,160,2013-02-16 20:56:00
12:16 PM,-18.4,-29.2,58,30.14,10.0,SSE,5.8,-,N/A,,Clear,150,2013-02-16 21:16:00
12:36 PM,-13.0,-14.8,92,30.14,10.0,SE,4.6,-,N/A,,Clear,140,2013-02-16 21:36:00
12:56 PM,-14.8,-9999,N/A,30.15,10.0,SE,9.2,-,N/A,,Clear,130,2013-02-16 21:56:00
1:16 PM,-14.8,-29.2,48,30.15,10.0,East,9.2,-,N/A,,Clear,80,2013-02-16 22:16:00
1:36 PM,-13.0,-13.0,100,30.15,10.0,ENE,12.7,-,N/A,,Clear,70,2013-02-16 22:36:00
1:56 PM,-11.2,-29.2,41,30.15,10.0,East,6.9,-,N/A,,Clear,90,2013-02-16 22:56:00
2:16 PM,-11.2,-14.8,84,30.15,10.0,ESE,9.2,-,N/A,,Clear,110,2013-02-16 23:16:00
2:36 PM,-11.2,-20.2,64,30.15,10.0,East,8.1,-,N/A,,Clear,100,2013-02-16 23:36:00
2:56 PM,-11.2,-20.2,64,30.14,10.0,East,6.9,-,N/A,,Clear,90,2013-02-16 23:56:00
3:16 PM,-7.6,-11.2,84,30.14,10.0,ENE,3.5,-,N/A,,Clear,60,2013-02-17 00:16:00
3:36 PM,-7.6,-16.6,65,30.13,10.0,ENE,6.9,-,N/A,,Clear,60,2013-02-17 00:36:00
3:56 PM,-7.6,-11.2,84,30.13,10.0,Calm,Calm,-,N/A,,Clear,0,2013-02-17 00:56:00
4:16 PM,-9.4,-22.0,54,30.13,10.0,Calm,Calm,-,N/A,,Clear,0,2013-02-17 01:16:00
4:36 PM,-9.4,-13.0,84,30.12,10.0,Calm,Calm,-,N/A,,Clear,0,2013-02-17 01:36:00
4:56 PM,-11.2,-23.8,54,30.11,10.0,Calm,Calm,-,N/A,,Clear,0,2013-02-17 01:56:00
5:16 PM,-14.8,-22.0,70,30.11,10.0,SSE,5.8,-,N/A,,Clear,150,2013-02-17 02:16:00
5:36 PM,-14.8,-23.8,64,30.11,10.0,Calm,Calm,-,N/A,,Clear,0,2013-02-17 02:36:00
5:56 PM,-14.8,-20.2,77,30.11,10.0,SE,3.5,-,N/A,,Clear,140,2013-02-17 02:56:00
6:16 PM,-14.8,-20.2,77,30.11,10.0,SE,3.5,-,N/A,,Clear,140,2013-02-17 03:16:00
6:36 PM,-14.8,-18.4,84,30.11,10.0,SE,3.5,-,N/A,,Clear,140,2013-02-17 03:36:00
6:56 PM,-16.6,-23.8,70,30.11,10.0,Calm,Calm,-,N/A,,Clear,0,2013-02-17 03:56:00
7:16 PM,-18.4,-9999,N/A,30.11,10.0,Calm,Calm,-,N/A,,Clear,0,2013-02-17 04:16:00
7:36 PM,-18.4,-18.4,100,30.11,10.0,Calm,Calm,-,N/A,,Clear,0,2013-02-17 04:36:00
7:56 PM,-18.4,-9999,N/A,30.11,10.0,Calm,Calm,-,N/A,,Clear,0,2013-02-17 04:56:00
8:16 PM,-16.6,-16.6,100,30.11,10.0,Calm,Calm,-,N/A,,Clear,0,2013-02-17 05:16:00
8:36 PM,-16.6,-9999,N/A,30.11,10.0,ESE,3.5,-,N/A,,Clear,120,2013-02-17 05:36:00
8:56 PM,-18.4,-25.6,70,30.12,10.0,Calm,Calm,-,N/A,,Clear,0,2013-02-17 05:56:00
9:16 PM,-18.4,-18.4,100,30.12,10.0,Calm,Calm,-,N/A,,Clear,0,2013-02-17 06:16:00
9:36 PM,-16.6,-20.2,84,30.12,10.0,SSE,5.8,-,N/A,,Clear,160,2013-02-17 06:36:00
9:56 PM,-16.6,-23.8,70,30.12,10.0,SE,8.1,-,N/A,,Clear,130,2013-02-17 06:56:00
10:16 PM,-14.8,-14.8,100,30.13,10.0,ESE,8.1,-,N/A,,Clear,120,2013-02-17 07:16:00
10:36 PM,-14.8,-25.6,58,30.13,10.0,SE,5.8,-,N/A,,Clear,130,2013-02-17 07:36:00
10:56 PM,-13.0,-13.0,100,30.13,10.0,ESE,8.1,-,N/A,,Clear,110,2013-02-17 07:56:00
11:16 PM,-18.4,-9999,N/A,30.14,10.0,East,5.8,-,N/A,,Clear,90,2013-02-17 08:16:00
11:36 PM,-16.6,-25.6,64,30.14,10.0,Calm,Calm,-,N/A,,Clear,0,2013-02-17 08:36:00
11:56 PM,-14.8,-14.8,100,30.14,10.0,Calm,Calm,-,N/A,,Clear,0,2013-02-17 08:56:00